Flag for Germany Weather past 2 weeks in Ludwigshafen, Rhineland-Palatinate, Germany

Now
57 °F

Light rain. Partly sunny.


Feels Like: 56 °F
Forecast: 48 / 71 °F
Wind: 7 mph from Southwest

Location: Baden Wurttemberg - Neuostheim

Current Time: Jul 29, 2015 at 8:05:23 AM

Latest Report: Jul 29, 2015 at 7:20 AM


Visibility: N/A

Pressure: 29.86 "Hg

Humidity: 82%

Dew point: 52 °F

Location of LudwigshafenLocation

Historic Weather in Ludwigshafen — Graph

°F

Ludwigshafen temperature yesterday

Maximum temperature yesterday: 72 °F (at 2:20 PM)
Minimum temperature yesterday: 63 °F (at 5:50 AM)
Average temperature yesterday: 67 °F

Past Weeks' High & Low Weather Summary

 TemperatureHumidityPressure
High95 °F (Jul 17, 3:50 PM)100% (Jul 19, 2:50 PM)30.15 "Hg (Jul 19, 2:50 PM)
Low55 °F (Jul 26, 7:50 AM)19% (Jul 16, 7:50 PM)29.65 "Hg (Jul 24, 7:50 PM)
Average77 °F53%29.93 "Hg
* Reported Jul 14 6:20 AM — Jul 29 6:50 AM, Ludwigshafen, Weather by CustomWeather, © 2015

Note: Actual official high and low records may vary slightly from our data, if they occured in-between our weather recording intervals... More about our weather records

Advertising

Ludwigshafen weather history for previous 24 hours

 ConditionsComfort  
Time TempWeatherWind HumidityBarometerVisibility
6:50 AM
Wed, Jul 29
57 °FPassing clouds.6 mph82%29.86 "HgN/A
5:50 AM57 °FLight rain. Clear.7 mph82%29.86 "HgN/A
9:20 PM
Tue, Jul 28
66 °FSunny.10 mph43%29.83 "HgN/A
8:50 PM68 °FSunny.10 mph40%29.83 "Hg10 mi
8:20 PM68 °FPassing clouds.9 mph40%29.83 "HgN/A
7:50 PM68 °FSunny.13 mph40%29.83 "Hg10 mi
7:20 PM68 °FSunny.9 mph40%29.83 "Hg10 mi
6:50 PM68 °FPassing clouds.13 mph40%29.80 "HgN/A
6:20 PM68 °FPassing clouds.10 mph40%29.80 "HgN/A
5:50 PM70 °FPassing clouds.13 mph38%29.80 "HgN/A
5:20 PM70 °FPassing clouds.16 mph35%29.80 "HgN/A
4:50 PM72 °FPassing clouds.14 mph33%29.80 "HgN/A
4:20 PM72 °FPassing clouds.15 mph33%29.80 "HgN/A
3:50 PM70 °FPassing clouds.14 mph35%29.80 "HgN/A
3:20 PM72 °FPassing clouds.16 mph36%29.80 "HgN/A
2:50 PM70 °FPassing clouds.16 mph38%29.80 "HgN/A
2:20 PM72 °FPassing clouds.15 mph41%29.80 "HgN/A
1:50 PM70 °FPassing clouds.17 mph43%29.80 "HgN/A
1:20 PM68 °FPassing clouds.15 mph43%29.83 "HgN/A
12:50 PM68 °FScattered clouds.14 mph43%29.83 "HgN/A
12:20 PM68 °FBroken clouds.18 mph43%29.83 "HgN/A
11:50 AM66 °FScattered clouds.14 mph46%29.83 "HgN/A
11:20 AM68 °FScattered clouds.13 mph43%29.83 "HgN/A
10:50 AM66 °FPassing clouds.14 mph46%29.83 "HgN/A
10:20 AM64 °FPartly sunny.16 mph46%29.83 "HgN/A
9:50 AM66 °FScattered clouds.14 mph46%29.83 "HgN/A
9:20 AM64 °FBroken clouds.12 mph52%29.83 "HgN/A
8:50 AM64 °FBroken clouds.16 mph56%29.80 "HgN/A
8:20 AM63 °FPartly sunny.8 mph68%29.80 "HgN/A
Weather by CustomWeather, © 2015

See weather overviewHow to use our weather pages